User: anonymous   Login
Location: Nairn
(57.5833°N, 3.8667°W)
Time: 13:05:58
(UTC+00:00)
Language:

Tiros 1 - Orbit

View from above orbital plane
View from above orbital plane
View from above satellite
View from above satellite

Ground track
Ground track

The orbit data is extracted from the following two-line orbital elements,

1 00029U 60002B   22276.52554440  .00000677  00000-0  13039-3 0  9996
2 00029  48.3800 312.7189 0024379 219.8237 140.0887 14.74750859342214
Epoch (UTC): 03 October 2022 12:36:47
Eccentricity: 0.0024379
inclination: 48.3800°
perigee height: 629 km
apogee height: 663 km
right ascension of ascending node: 312.7189°
argument of perigee: 219.8237°
revolutions per day: 14.74750859
mean anomaly at epoch: 140.0887°
orbit number at epoch: 34221

The dashed part of the orbit path shows where the satellite is in the earth's shadow,  

DLR